This demonstration page uses our WeatherBlox Daily Observations layout. Learn more.

Left ArrowRight Arrow

41.86663, -103.66717

Hourly Observations for February 12, 2015

Temp ( °F °C ) Dew Point ( °F °C ) Humidity (%) Winds ( mph kmh ) Pressure ( in mb ) Visibility ( mi km ) Precip ( " mm )
12:53 am 00:53 Clear 27 -2.8 24 -4.4 89 89 E 9 15 30.41 1030 10 16.0934 N/A
1:53 am 01:53 Clear 26 -3.3 24 -4.4 92 92 ESE 8 13 30.38 1029 10 16.0934 N/A
2:24 am 02:24 Mostly Cloudy 26 -3.3 24 -4.4 92 92 ESE 7 11 30.53 1034 10 16.0934 N/A
2:53 am 02:53 Cloudy 27 -2.8 24 -4.4 89 89 ESE 10 17 30.37 1028 10 16.0934 N/A
3:00 am 03:00 Cloudy 27 -3 25 -4 93 93 ESE 10 17 30.5 1033 10 16.0934 N/A
3:20 am 03:20 Cloudy 27 -3 25 -4 93 93 SE 9 15 30.5 1033 10 16.0934 N/A
3:53 am 03:53 Cloudy 27 -2.8 24 -4.4 89 89 ESE 13 20 30.36 1028 10 16.0934 N/A
4:27 am 04:27 Cloudy 27 -2.8 24 -4.4 89 89 ESE 15 24 30.5 1033 10 16.0934 N/A
4:53 am 04:53 Cloudy 27 -2.8 24 -4.4 89 89 SE 15 24 30.37 1028 10 16.0934 N/A
5:53 am 05:53 Cloudy 28 -2.2 24 -4.4 85 85 SE 12 19 30.37 1028 10 16.0934 N/A
6:17 am 06:17 Partly Cloudy 28 -2.2 24 -4.4 85 85 SSE 13 20 30.45 1031 10 16.0934 N/A
6:53 am 06:53 Clear 28 -2.2 24 -4.4 85 85 SE 12 19 30.34 1028 9 14.48406 N/A
7:53 am 07:53 Mostly Cloudy 29 -1.7 24 -4.4 82 82 SE 12 19 30.32 1027 10 16.0934 N/A
8:53 am 08:53 Mostly Cloudy 31 -0.6 25 -3.9 79 79 SE 12 19 30.3 1026 10 16.0934 N/A
9:53 am 09:53 Cloudy 34 1.1 26 -3.3 73 73 ESE 9 15 30.28 1025 10 16.0934 N/A
10:53 am 10:53 Cloudy 37 2.8 27 -2.8 67 67 ESE 8 13 30.26 1025 10 16.0934 N/A
11:53 am 11:53 Partly Cloudy 41 5 28 -2.2 60 60 N N/A 30.24 1024 10 16.0934 N/A
12:53 pm 12:53 Sunny 45 7.2 29 -1.7 54 54 W 7 11 30.18 1022 10 16.0934 N/A
1:53 pm 13:53 Sunny 51 10.6 29 -1.7 43 43 WNW 9 15 30.15 1021 10 16.0934 N/A
2:53 pm 14:53 Sunny 56 13.3 28 -2.2 34 34 W 9 15 30.11 1020 10 16.0934 N/A
3:53 pm 15:53 Sunny 57 13.9 28 -2.2 33 33 WSW 8 13 30.09 1019 10 16.0934 N/A
4:53 pm 16:53 Sunny 54 12.2 27 -2.8 35 35 WNW 6 9 30.1 1019 10 16.0934 N/A
5:53 pm 17:53 Clear 47 8.3 27 -2.8 46 46 N 10 17 30.14 1021 10 16.0934 N/A
6:53 pm 18:53 Clear 41 5 27 -2.8 57 57 NNW 6 9 30.19 1022 10 16.0934 N/A
7:53 pm 19:53 Clear 40 4.4 27 -2.8 60 60 WNW 3 6 30.21 1023 10 16.0934 N/A
8:53 pm 20:53 Mostly Clear 38 3.3 26 -3.3 62 62 W 7 11 30.22 1023 10 16.0934 N/A
9:53 pm 21:53 Clear 37 2.8 27 -2.8 67 67 WNW 5 7 30.22 1023 10 16.0934 N/A
10:53 pm 22:53 Clear 36 2.2 28 -2.2 73 73 NNW 7 11 30.23 1024 10 16.0934 N/A
11:53 pm 23:53 Clear 34 1.1 26 -3.3 73 73 NW 8 13 30.24 1024 10 16.0934 N/A

Powered by AerisWeather